| time (UTC) | temp F | wind direction | speed knots | gust knots | rain 1hr in | rain 24hr in | rain mn in | humidity % | barometer mb |
| 20260508004528 | 55 | 290 | 0.9 | 0.9 | 0.00 | 0.00 | 0.00 | 82 | 1013.8 |
| 20260508004029 | 55 | 296 | 0.9 | 0.9 | 0.00 | 0.00 | 0.00 | 82 | 1013.8 |
| 20260508003528 | 55 | 315 | 0.9 | 0.9 | 0.00 | 0.00 | 0.00 | 82 | 1013.8 |
| 20260508002531 | 55 | 310 | 0.9 | 0.9 | 0.00 | 0.00 | 0.00 | 82 | 1014.0 |
| 20260508001528 | 55 | 248 | 0.9 | 0.9 | 0.00 | 0.00 | 0.00 | 82 | 1014.0 |
| 20260508001038 | 55 | 269 | 0.0 | 0.9 | 0.00 | 0.00 | 0.00 | 82 | 1014.1 |
| 20260508000528 | 56 | 304 | 0.0 | 0.0 | 0.00 | 0.00 | 0.00 | 81 | 1014.2 |
| 20260508000029 | 56 | 296 | 46.1 | 59.1 | 0.00 | 0.00 | 0.00 | 81 | 1014.2 |
| 20260507235528 | 56 | 316 | 59.1 | 59.1 | 0.00 | 0.00 | 0.00 | 81 | 1014.2 |
| 20260507235030 | 56 | 324 | 58.2 | 59.1 | 0.00 | 0.00 | 0.00 | 82 | 1014.2 |
| 20260507234527 | 56 | 316 | 59.1 | 59.1 | 0.00 | 0.00 | 0.00 | 82 | 1014.2 |
| 20260507234030 | 56 | 301 | 11.3 | 11.3 | 0.00 | 0.00 | 0.00 | 82 | 1014.2 |
| 20260507233029 | 56 | 270 | 59.1 | 95.6 | 0.00 | 0.00 | 0.00 | 82 | 1014.2 |
| 20260507232528 | 56 | 270 | 7.8 | 59.1 | 0.00 | 0.00 | 0.00 | 81 | 1014.1 |
| 20260507232030 | 56 | 316 | 59.1 | 59.1 | 0.00 | 0.00 | 0.00 | 81 | 1014.2 |
| 20260507231528 | 56 | 311 | 75.6 | 95.6 | 0.00 | 0.00 | 0.00 | 81 | 1014.2 |
| 20260507231030 | 57 | 303 | 59.1 | 59.1 | 0.00 | 0.00 | 0.00 | 81 | 1014.3 |
| 20260507230529 | 57 | 317 | 33.9 | 95.6 | 0.00 | 0.00 | 0.00 | 81 | 1014.3 |
| 20260507225528 | 57 | 292 | 63.4 | 95.6 | 0.00 | 0.00 | 0.00 | 81 | 1014.4 |
| 20260507225029 | 57 | 317 | 27.8 | 95.6 | 0.00 | 0.00 | 0.00 | 81 | 1014.4 |
| 20260507224528 | 57 | 316 | 7.8 | 11.3 | 0.00 | 0.00 | 0.00 | 81 | 1014.3 |
| 20260507224029 | 57 | 316 | 0.0 | 0.0 | 0.00 | 0.00 | 0.00 | 81 | 1014.3 |
| 20260507223528 | 57 | 225 | 9.6 | 22.6 | 0.00 | 0.00 | 0.00 | 81 | 1014.2 |
| 20260507223029 | 57 | 255 | 5.2 | 22.6 | 0.00 | 0.00 | 0.00 | 81 | 1014.1 |
| 20260507222529 | 57 | 333 | 0.9 | 22.6 | 0.00 | 0.00 | 0.00 | 80 | 1014.0 |
| 20260507222029 | 58 | 248 | 2.6 | 22.6 | 0.00 | 0.00 | 0.00 | 80 | 1014.0 |
| 20260507221528 | 58 | 285 | 0.9 | 0.9 | 0.00 | 0.00 | 0.00 | 80 | 1013.9 |
| 20260507221031 | 58 | 202 | 0.0 | 0.9 | 0.00 | 0.00 | 0.00 | 80 | 1014.0 |
| 20260507220527 | 58 | 257 | 1.7 | 22.6 | 0.00 | 0.00 | 0.00 | 80 | 1014.0 |
| 20260507215537 | 58 | 238 | 0.9 | 2.6 | 0.00 | 0.00 | 0.00 | 79 | 1014.0 |
| 20260507214531 | 59 | 202 | 0.9 | 1.7 | 0.00 | 0.00 | 0.00 | 79 | 1013.9 |
| 20260507213528 | 59 | 210 | 1.7 | 2.6 | 0.00 | 0.00 | 0.00 | 78 | 1013.9 |
| 20260507213029 | 59 | 190 | 1.7 | 2.6 | 0.00 | 0.00 | 0.00 | 78 | 1013.9 |
| 20260507212528 | 60 | 191 | 1.7 | 2.6 | 0.00 | 0.00 | 0.00 | 78 | 1013.8 |
| 20260507212030 | 60 | 180 | 2.6 | 4.3 | 0.00 | 0.00 | 0.00 | 78 | 1013.8 |
| 20260507211528 | 60 | 158 | 0.9 | 0.9 | 0.00 | 0.00 | 0.00 | 77 | 1013.8 |
| 20260507211030 | 60 | 153 | 0.0 | 0.0 | 0.00 | 0.00 | 0.00 | 77 | 1013.7 |
| 20260507210029 | 61 | 135 | 0.0 | 0.0 | 0.00 | 0.00 | 0.00 | 77 | 1013.8 |
| 20260507205030 | 61 | 114 | 0.0 | 0.0 | 0.00 | 0.00 | 0.00 | 76 | 1013.9 |
| 20260507204530 | 61 | 128 | 1.7 | 1.7 | 0.00 | 0.00 | 0.00 | 76 | 1013.9 |
| 20260507204029 | 61 | 135 | 0.9 | 0.9 | 0.00 | 0.00 | 0.00 | 76 | 1013.9 |
| 20260507203031 | 61 | 96 | 0.0 | 0.0 | 0.00 | 0.00 | 0.00 | 75 | 1014.1 |
| 20260507201031 | 62 | 22 | 0.0 | 0.9 | 0.00 | 0.00 | 0.00 | 75 | 1014.1 |
| 20260507200529 | 62 | 22 | 0.0 | 0.0 | 0.00 | 0.00 | 0.00 | 75 | 1014.2 |
| 20260507195030 | 62 | 90 | 0.0 | 0.0 | 0.00 | 0.00 | 0.00 | 75 | 1014.2 |
| 20260507194030 | 62 | 90 | 0.0 | 1.7 | 0.00 | 0.00 | 0.00 | 75 | 1014.2 |
| 20260507193529 | 62 | 85 | 0.0 | 0.9 | 0.00 | 0.00 | 0.00 | 75 | 1014.1 |
| 20260507192537 | 63 | 94 | 0.9 | 0.9 | 0.00 | 0.00 | 0.00 | 74 | 1013.9 |
| 20260507192031 | 63 | 77 | 1.7 | 2.6 | 0.00 | 0.00 | 0.00 | 74 | 1013.8 |
| 20260507191529 | 63 | 51 | 0.9 | 2.6 | 0.00 | 0.00 | 0.00 | 74 | 1013.8 |
| 20260507190528 | 63 | 50 | 0.0 | 1.7 | 0.00 | 0.00 | 0.00 | 74 | 1013.8 |
| 20260507185528 | 64 | 90 | 0.9 | 1.7 | 0.00 | 0.00 | 0.00 | 74 | 1013.8 |
| 20260507185030 | 64 | 92 | 0.9 | 1.7 | 0.00 | 0.00 | 0.00 | 74 | 1013.8 |
| 20260507184528 | 64 | 90 | 0.9 | 1.7 | 0.00 | 0.00 | 0.00 | 74 | 1013.7 |
| 20260507183528 | 64 | 60 | 0.0 | 0.0 | 0.00 | 0.00 | 0.00 | 73 | 1013.6 |
| 20260507182528 | 64 | 85 | 0.9 | 2.6 | 0.00 | 0.00 | 0.00 | 73 | 1013.6 |
| 20260507182031 | 65 | 90 | 0.9 | 2.6 | 0.00 | 0.00 | 0.00 | 73 | 1013.7 |
| 20260507181039 | 65 | 91 | 3.5 | 5.2 | 0.00 | 0.00 | 0.00 | 74 | 1013.4 |
| 20260507180528 | 65 | 104 | 3.5 | 5.2 | 0.00 | 0.00 | 0.00 | 74 | 1013.3 |
| 20260507180030 | 65 | 105 | 1.7 | 7.8 | 0.00 | 0.00 | 0.00 | 74 | 1013.3 |
| 20260507175528 | 65 | 91 | 5.2 | 7.8 | 0.00 | 0.00 | 0.00 | 74 | 1013.3 |
| 20260507175030 | 66 | 116 | 2.6 | 6.1 | 0.00 | 0.00 | 0.00 | 74 | 1013.1 |
| 20260507172529 | 66 | 105 | 2.6 | 7.8 | 0.00 | 0.00 | 0.00 | 71 | 1012.9 |
| 20260507172030 | 66 | 124 | 6.1 | 7.8 | 0.00 | 0.00 | 0.00 | 71 | 1012.9 |
| 20260507171528 | 66 | 96 | 4.3 | 7.0 | 0.00 | 0.00 | 0.00 | 70 | 1012.8 |
| 20260507171029 | 66 | 94 | 6.1 | 12.2 | 0.00 | 0.00 | 0.00 | 69 | 1012.9 |
| 20260507170538 | 67 | 85 | 6.1 | 12.2 | 0.00 | 0.00 | 0.00 | 68 | 1012.8 |
| 20260507170030 | 67 | 90 | 5.2 | 7.8 | 0.00 | 0.00 | 0.00 | 68 | 1012.7 |
| 20260507165533 | 67 | 92 | 4.3 | 7.8 | 0.00 | 0.00 | 0.00 | 67 | 1012.9 |
| 20260507164537 | 67 | 92 | 4.3 | 6.1 | 0.00 | 0.00 | 0.00 | 65 | 1013.0 |
| 20260507163528 | 67 | 104 | 2.6 | 7.8 | 0.00 | 0.00 | 0.00 | 63 | 1012.8 |
| 20260507163042 | 67 | 96 | 6.1 | 8.7 | 0.00 | 0.00 | 0.00 | 63 | 1013.0 |
| 20260507162033 | 67 | 92 | 5.2 | 7.8 | 0.00 | 0.00 | 0.00 | 62 | 1012.9 |
| 20260507161035 | 68 | 90 | 4.3 | 10.4 | 0.00 | 0.00 | 0.00 | 60 | 1013.0 |
| 20260507154030 | 68 | 65 | 5.2 | 7.8 | 0.00 | 0.00 | 0.00 | 57 | 1013.1 |
| 20260507153029 | 68 | 36 | 7.8 | 10.4 | 0.00 | 0.00 | 0.00 | 57 | 1013.2 |
| 20260507152529 | 68 | 42 | 5.2 | 7.8 | 0.00 | 0.00 | 0.00 | 58 | 1013.1 |
| 20260507152030 | 68 | 63 | 4.3 | 10.4 | 0.00 | 0.00 | 0.00 | 58 | 1013.2 |
| 20260507151530 | 68 | 89 | 4.3 | 7.8 | 0.00 | 0.00 | 0.00 | 58 | 1013.3 |
| 20260507151031 | 68 | 112 | 3.5 | 7.8 | 0.00 | 0.00 | 0.00 | 59 | 1013.1 |
| 20260507150528 | 68 | 45 | 7.8 | 12.2 | 0.00 | 0.00 | 0.00 | 59 | 1013.2 |
| 20260507150034 | 68 | 22 | 9.6 | 12.2 | 0.00 | 0.00 | 0.00 | 59 | 1013.1 |
| 20260507145528 | 68 | 71 | 7.0 | 11.3 | 0.00 | 0.00 | 0.00 | 58 | 1013.2 |
| 20260507145029 | 69 | 15 | 7.8 | 11.3 | 0.00 | 0.00 | 0.00 | 59 | 1013.2 |
| 20260507144528 | 69 | 53 | 7.0 | 13.9 | 0.00 | 0.00 | 0.00 | 58 | 1013.2 |
| 20260507144030 | 69 | 59 | 6.1 | 12.2 | 0.00 | 0.00 | 0.00 | 58 | 1013.1 |
| 20260507143035 | 69 | 7 | 7.8 | 13.0 | 0.00 | 0.00 | 0.00 | 58 | 1013.3 |
| 20260507142030 | 69 | 3 | 7.0 | 8.7 | 0.00 | 0.00 | 0.00 | 57 | 1013.3 |
| 20260507141529 | 69 | 68 | 5.2 | 11.3 | 0.00 | 0.00 | 0.00 | 56 | 1013.3 |
| 20260507141030 | 70 | 46 | 5.2 | 11.3 | 0.00 | 0.00 | 0.00 | 57 | 1013.2 |
| 20260507140031 | 69 | 35 | 4.3 | 7.8 | 0.00 | 0.00 | 0.00 | 56 | 1013.3 |
| 20260507135531 | 69 | 47 | 5.2 | 6.1 | 0.00 | 0.00 | 0.00 | 56 | 1013.4 |
| 20260507134528 | 70 | 69 | 7.8 | 11.3 | 0.00 | 0.00 | 0.00 | 56 | 1013.4 |
| 20260507134030 | 70 | 90 | 2.6 | 8.7 | 0.00 | 0.00 | 0.00 | 56 | 1013.4 |
| 20260507133531 | 69 | 30 | 4.3 | 8.7 | 0.00 | 0.00 | 0.00 | 56 | 1013.4 |
| 20260507133033 | 69 | 19 | 6.1 | 11.3 | 0.00 | 0.00 | 0.00 | 56 | 1013.4 |
| 20260507132528 | 69 | 49 | 5.2 | 13.0 | 0.00 | 0.00 | 0.00 | 56 | 1013.5 |
| 20260507131536 | 70 | 49 | 4.3 | 10.4 | 0.00 | 0.00 | 0.00 | 56 | 1013.5 |
| 20260507131031 | 70 | 69 | 7.0 | 7.8 | 0.00 | 0.00 | 0.00 | 55 | 1013.4 |
| 20260507130528 | 70 | 22 | 5.2 | 10.4 | 0.00 | 0.00 | 0.00 | 55 | 1013.4 |
| 20260507130029 | 70 | 45 | 7.8 | 13.0 | 0.00 | 0.00 | 0.00 | 55 | 1013.4 |
| 20260507125030 | 70 | 33 | 5.2 | 10.4 | 0.00 | 0.00 | 0.00 | 55 | 1013.4 |
| 20260507124528 | 70 | 19 | 5.2 | 11.3 | 0.00 | 0.00 | 0.00 | 55 | 1013.4 |
| 20260507124033 | 70 | 47 | 5.2 | 12.2 | 0.00 | 0.00 | 0.00 | 55 | 1013.4 |
| 20260507123532 | 70 | 32 | 5.2 | 10.4 | 0.00 | 0.00 | 0.00 | 55 | 1013.4 |
| 20260507123039 | 70 | 46 | 7.8 | 7.8 | 0.00 | 0.00 | 0.00 | 56 | 1013.4 |
| 20260507122030 | 70 | 59 | 5.2 | 8.7 | 0.00 | 0.00 | 0.00 | 56 | 1013.5 |
| 20260507121528 | 70 | 36 | 6.1 | 8.7 | 0.00 | 0.00 | 0.00 | 56 | 1013.4 |
| 20260507121031 | 69 | 21 | 6.1 | 10.4 | 0.00 | 0.00 | 0.00 | 55 | 1013.5 |
| 20260507120531 | 69 | 4 | 5.2 | 13.0 | 0.00 | 0.00 | 0.00 | 55 | 1013.6 |
| 20260507115528 | 70 | 29 | 8.7 | 12.2 | 0.00 | 0.00 | 0.00 | 56 | 1013.5 |
| 20260507115030 | 69 | 2 | 8.7 | 12.2 | 0.00 | 0.00 | 0.00 | 55 | 1013.6 |
| 20260507114030 | 69 | 40 | 7.0 | 12.2 | 0.00 | 0.00 | 0.00 | 55 | 1013.6 |
| 20260507113528 | 70 | 69 | 7.0 | 13.0 | 0.00 | 0.00 | 0.00 | 54 | 1013.5 |
| 20260507113030 | 70 | 40 | 5.2 | 10.4 | 0.00 | 0.00 | 0.00 | 54 | 1013.7 |
| 20260507112029 | 70 | 45 | 8.7 | 10.4 | 0.00 | 0.00 | 0.00 | 55 | 1013.6 |
| 20260507111538 | 70 | 45 | 6.1 | 10.4 | 0.00 | 0.00 | 0.00 | 54 | 1013.7 |
| 20260507111033 | 70 | 19 | 5.2 | 7.8 | 0.00 | 0.00 | 0.00 | 54 | 1013.6 |
| 20260507110530 | 70 | 47 | 5.2 | 12.2 | 0.00 | 0.00 | 0.00 | 54 | 1013.7 |
| 20260507110030 | 70 | 45 | 5.2 | 10.4 | 0.00 | 0.00 | 0.00 | 54 | 1013.8 |
| 20260507105529 | 71 | 29 | 5.2 | 10.4 | 0.00 | 0.00 | 0.00 | 54 | 1013.7 |
| 20260507105029 | 71 | 16 | 5.2 | 11.3 | 0.00 | 0.00 | 0.00 | 54 | 1013.8 |
| 20260507104534 | 71 | 6 | 6.1 | 11.3 | 0.00 | 0.00 | 0.00 | 54 | 1013.8 |
| 20260507104030 | 71 | 16 | 7.8 | 13.9 | 0.00 | 0.00 | 0.00 | 53 | 1013.8 |
| 20260507103529 | 71 | 16 | 8.7 | 13.9 | 0.00 | 0.00 | 0.00 | 53 | 1013.8 |
| 20260507102528 | 71 | 356 | 2.6 | 7.0 | 0.00 | 0.00 | 0.00 | 53 | 1013.6 |
| 20260507102031 | 71 | 357 | 4.3 | 8.7 | 0.00 | 0.00 | 0.00 | 54 | 1013.7 |
| 20260507101528 | 72 | 45 | 4.3 | 5.2 | 0.00 | 0.00 | 0.00 | 53 | 1013.8 |
| 20260507101030 | 72 | 329 | 5.2 | 7.8 | 0.00 | 0.00 | 0.00 | 53 | 1013.8 |
| 20260507100529 | 72 | 324 | 5.2 | 10.4 | 0.00 | 0.00 | 0.00 | 53 | 1013.8 |
| 20260507095528 | 72 | 24 | 4.3 | 7.8 | 0.00 | 0.00 | 0.00 | 54 | 1013.8 |
| 20260507095030 | 73 | 60 | 4.3 | 12.2 | 0.00 | 0.00 | 0.00 | 54 | 1013.7 |
| 20260507094528 | 73 | 29 | 5.2 | 10.4 | 0.00 | 0.00 | 0.00 | 54 | 1013.8 |
| 20260507094030 | 73 | 358 | 5.2 | 8.7 | 0.00 | 0.00 | 0.00 | 54 | 1013.7 |
| 20260507093531 | 73 | 22 | 0.0 | 6.1 | 0.00 | 0.00 | 0.00 | 54 | 1013.6 |
| 20260507093030 | 72 | 288 | 0.0 | 2.6 | 0.00 | 0.00 | 0.00 | 54 | 1013.7 |
| 20260507092528 | 72 | 222 | 0.0 | 0.0 | 0.00 | 0.00 | 0.00 | 54 | 1013.7 |
| 20260507092030 | 72 | 266 | 0.9 | 5.2 | 0.00 | 0.00 | 0.00 | 53 | 1013.5 |
| 20260507091528 | 72 | 202 | 0.9 | 7.0 | 0.00 | 0.00 | 0.00 | 54 | 1013.5 |
| 20260507091030 | 72 | 310 | 4.3 | 8.7 | 0.00 | 0.00 | 0.00 | 54 | 1013.6 |
| 20260507090528 | 72 | 346 | 4.3 | 8.7 | 0.00 | 0.00 | 0.00 | 54 | 1013.5 |
| 20260507090030 | 72 | 274 | 1.7 | 5.2 | 0.00 | 0.00 | 0.00 | 55 | 1013.5 |
| 20260507085529 | 72 | 278 | 0.0 | 5.2 | 0.00 | 0.00 | 0.00 | 55 | 1013.6 |
| 20260507084529 | 72 | 319 | 0.9 | 4.3 | 0.00 | 0.00 | 0.00 | 56 | 1013.6 |
| 20260507083529 | 71 | 338 | 0.9 | 2.6 | 0.00 | 0.00 | 0.00 | 56 | 1013.5 |
| 20260507083033 | 71 | 319 | 1.7 | 2.6 | 0.00 | 0.00 | 0.00 | 56 | 1013.4 |
| 20260507082033 | 70 | 254 | 0.9 | 7.0 | 0.00 | 0.00 | 0.00 | 56 | 1013.3 |
| 20260507081528 | 70 | 323 | 2.6 | 4.3 | 0.00 | 0.00 | 0.00 | 57 | 1013.4 |
| 20260507081030 | 70 | 221 | 2.6 | 5.2 | 0.00 | 0.00 | 0.00 | 57 | 1013.3 |
| 20260507080528 | 70 | 278 | 1.7 | 5.2 | 0.00 | 0.00 | 0.00 | 57 | 1013.3 |
| 20260507075529 | 70 | 291 | 0.9 | 7.8 | 0.00 | 0.00 | 0.00 | 59 | 1013.3 |
| 20260507075033 | 69 | 265 | 1.7 | 4.3 | 0.00 | 0.00 | 0.00 | 61 | 1013.3 |
| 20260507074529 | 69 | 188 | 3.5 | 6.1 | 0.00 | 0.00 | 0.00 | 62 | 1013.3 |
| 20260507074030 | 68 | 144 | 0.9 | 1.7 | 0.00 | 0.00 | 0.00 | 63 | 1013.2 |
| 20260507073528 | 68 | 6 | 0.0 | 0.9 | 0.00 | 0.00 | 0.00 | 64 | 1013.3 |
| 20260507073030 | 67 | 208 | 1.7 | 2.6 | 0.00 | 0.00 | 0.00 | 64 | 1013.3 |
| 20260507072528 | 67 | 244 | 1.7 | 4.3 | 0.00 | 0.00 | 0.00 | 65 | 1013.4 |
| 20260507070528 | 65 | 144 | 0.9 | 2.6 | 0.00 | 0.00 | 0.00 | 72 | 1013.4 |
| 20260507070030 | 64 | 315 | 0.9 | 2.6 | 0.00 | 0.00 | 0.00 | 74 | 1013.3 |
| 20260507065537 | 64 | 237 | 1.7 | 6.1 | 0.00 | 0.00 | 0.00 | 75 | 1013.3 |
| 20260507065033 | 63 | 91 | 0.0 | 0.9 | 0.00 | 0.00 | 0.00 | 77 | 1013.3 |
| 20260507064030 | 61 | 78 | 0.0 | 2.6 | 0.00 | 0.00 | 0.00 | 79 | 1013.2 |
| 20260507063528 | 61 | 72 | 0.0 | 0.0 | 0.00 | 0.00 | 0.00 | 79 | 1013.3 |
| 20260507063030 | 60 | 354 | 0.0 | 0.0 | 0.00 | 0.00 | 0.00 | 78 | 1013.2 |
| 20260507062029 | 60 | 171 | 0.9 | 2.6 | 0.00 | 0.00 | 0.00 | 79 | 1013.2 |
| 20260507061528 | 60 | 316 | 0.0 | 0.0 | 0.00 | 0.00 | 0.00 | 80 | 1013.3 |
| 20260507061031 | 60 | 315 | 85.2 | 95.6 | 0.00 | 0.00 | 0.00 | 80 | 1013.2 |
| 20260507055031 | 58 | 169 | 95.6 | 95.6 | 0.00 | 0.00 | 0.00 | 81 | 1013.0 |
| 20260507054531 | 58 | 172 | 95.6 | 95.6 | 0.00 | 0.00 | 0.00 | 81 | 1013.0 |
| 20260507054031 | 58 | 186 | 95.6 | 95.6 | 0.00 | 0.00 | 0.00 | 81 | 1013.1 |
| 20260507053529 | 58 | 310 | 95.6 | 95.6 | 0.00 | 0.00 | 0.00 | 81 | 1012.9 |
| 20260507053030 | 58 | 299 | 95.6 | 95.6 | 0.00 | 0.00 | 0.00 | 81 | 1013.0 |
| 20260507052529 | 58 | 295 | 95.6 | 95.6 | 0.00 | 0.00 | 0.00 | 81 | 1012.9 |
| 20260507051529 | 58 | 316 | 95.6 | 95.6 | 0.00 | 0.00 | 0.00 | 81 | 1012.7 |
| 20260507050529 | 58 | 232 | 95.6 | 95.6 | 0.00 | 0.00 | 0.00 | 82 | 1012.8 |
| 20260507050030 | 58 | 304 | 95.6 | 95.6 | 0.00 | 0.00 | 0.00 | 82 | 1012.7 |
| 20260507045528 | 58 | 202 | 95.6 | 95.6 | 0.00 | 0.00 | 0.00 | 82 | 1012.7 |
| 20260507044529 | 58 | 263 | 95.6 | 95.6 | 0.00 | 0.02 | 0.00 | 83 | 1012.6 |
| 20260507044030 | 58 | 269 | 95.6 | 95.6 | 0.00 | 0.02 | 0.00 | 83 | 1012.4 |
| 20260507043529 | 58 | 292 | 95.6 | 95.6 | 0.00 | 0.02 | 0.00 | 83 | 1012.3 |
| 20260507043031 | 58 | 315 | 95.6 | 95.6 | 0.00 | 0.02 | 0.00 | 83 | 1012.3 |
| 20260507042031 | 58 | 9 | 95.6 | 95.6 | 0.00 | 0.02 | 0.00 | 82 | 1012.3 |
| 20260507041529 | 58 | 287 | 95.6 | 95.6 | 0.00 | 0.02 | 0.00 | 83 | 1012.3 |
| 20260507041030 | 58 | 283 | 93.8 | 95.6 | 0.00 | 0.02 | 0.00 | 83 | 1012.1 |
| 20260507040529 | 57 | 311 | 32.2 | 57.4 | 0.00 | 0.02 | 0.00 | 82 | 1012.0 |
| 20260507040030 | 57 | 313 | 32.2 | 57.4 | 0.00 | 0.02 | 0.00 | 82 | 1012.0 |
| 20260507035533 | 57 | 315 | 2.6 | 40.8 | 0.00 | 0.02 | 0.00 | 82 | 1012.1 |
| 20260507035034 | 57 | 294 | 40.8 | 40.8 | 0.00 | 0.02 | 0.00 | 82 | 1012.0 |
| 20260507034532 | 57 | 20 | 0.0 | 0.0 | 0.00 | 0.02 | 0.00 | 82 | 1012.0 |
| 20260507034036 | 57 | 318 | 42.6 | 59.1 | 0.00 | 0.02 | 0.00 | 82 | 1012.0 |
| 20260507033529 | 57 | 315 | 52.1 | 59.1 | 0.00 | 0.02 | 0.00 | 82 | 1012.0 |
| 20260507033031 | 58 | 314 | 74.7 | 95.6 | 0.00 | 0.02 | 0.00 | 81 | 1011.9 |
| 20260507032530 | 58 | 90 | 57.4 | 59.1 | 0.00 | 0.02 | 0.00 | 81 | 1012.0 |
| 20260507032032 | 58 | 180 | 59.1 | 95.6 | 0.00 | 0.02 | 0.00 | 81 | 1011.9 |
| 20260507031530 | 58 | 311 | 38.2 | 59.1 | 0.00 | 0.02 | 0.00 | 81 | 1011.8 |
| 20260507031030 | 58 | 158 | 0.0 | 11.3 | 0.00 | 0.02 | 0.00 | 81 | 1012.0 |
| 20260507030530 | 58 | 271 | 0.0 | 0.0 | 0.00 | 0.02 | 0.00 | 81 | 1012.0 |
| 20260507030030 | 58 | 263 | 0.9 | 22.6 | 0.00 | 0.02 | 0.00 | 80 | 1011.9 |
| 20260507025529 | 59 | 180 | 2.6 | 22.6 | 0.00 | 0.02 | 0.00 | 80 | 1012.0 |
| 20260507025031 | 59 | 187 | 0.0 | 22.6 | 0.00 | 0.02 | 0.00 | 80 | 1012.0 |
| 20260507024529 | 59 | 283 | 0.0 | 22.6 | 0.00 | 0.02 | 0.00 | 80 | 1012.0 |
| 20260507024032 | 59 | 220 | 2.6 | 22.6 | 0.00 | 0.02 | 0.00 | 80 | 1012.0 |
| 20260507023534 | 59 | 322 | 8.7 | 22.6 | 0.00 | 0.02 | 0.00 | 80 | 1011.9 |
| 20260507023030 | 59 | 316 | 10.4 | 22.6 | 0.00 | 0.02 | 0.00 | 80 | 1011.7 |
| 20260507022529 | 59 | 292 | 0.0 | 0.0 | 0.00 | 0.02 | 0.00 | 80 | 1011.8 |
| 20260507022039 | 59 | 316 | 0.0 | 0.0 | 0.00 | 0.02 | 0.00 | 80 | 1011.9 |
| 20260507021530 | 60 | 135 | 0.0 | 0.0 | 0.00 | 0.02 | 0.00 | 79 | 1012.0 |
| 20260507021030 | 60 | 313 | 0.9 | 1.7 | 0.00 | 0.02 | 0.00 | 79 | 1012.0 |
| 20260507020529 | 60 | 349 | 0.0 | 1.7 | 0.00 | 0.02 | 0.00 | 79 | 1012.0 |
| 20260507020031 | 60 | 316 | 0.9 | 0.9 | 0.00 | 0.02 | 0.00 | 79 | 1012.0 |
| 20260507015529 | 60 | 324 | 0.0 | 0.0 | 0.00 | 0.02 | 0.00 | 79 | 1011.9 |
| 20260507015031 | 60 | 180 | 0.9 | 0.9 | 0.00 | 0.02 | 0.00 | 78 | 1011.9 |
| 20260507014030 | 60 | 308 | 0.0 | 1.7 | 0.00 | 0.02 | 0.00 | 78 | 1012.0 |
| 20260507013529 | 60 | 326 | 0.0 | 1.7 | 0.00 | 0.02 | 0.00 | 78 | 1012.0 |
| 20260507013030 | 60 | 173 | 0.9 | 1.7 | 0.00 | 0.02 | 0.00 | 78 | 1011.9 |
| 20260507012529 | 60 | 303 | 0.0 | 0.0 | 0.00 | 0.02 | 0.00 | 78 | 1012.1 |
| 20260507012030 | 60 | 303 | 0.0 | 0.0 | 0.00 | 0.02 | 0.00 | 77 | 1011.8 |
| 20260507011529 | 60 | 334 | 0.0 | 0.9 | 0.00 | 0.02 | 0.00 | 77 | 1011.8 |
| 20260507011031 | 60 | 89 | 1.7 | 1.7 | 0.00 | 0.02 | 0.00 | 77 | 1011.9 |
| 20260507010529 | 60 | 40 | 0.0 | 1.7 | 0.00 | 0.02 | 0.00 | 77 | 1011.8 |
| 20260507010031 | 61 | 319 | 0.0 | 0.0 | 0.00 | 0.02 | 0.00 | 76 | 1011.8 |
| 20260507005030 | 61 | 334 | 0.0 | 0.0 | 0.00 | 0.02 | 0.00 | 76 | 1012.0 |